This is the latest recevied weather packets stored in our database for station/object K5RWS. If no packets are shown the sender has not sent any weather packets the latest 10 day(s).
| Time | Temp. | Humidity | Pressure | Rain* | Wind** | Luminosity | Snow |
|---|---|---|---|---|---|---|---|
| 1778094928 | 18.89° C | 30% | 1016.3 hPa | 0 mm | - | 241 W/m² | - |
| 1778094624 | 17.78° C | 30% | 1016.2 hPa | 0 mm | - | 903 W/m² | - |
| 1778094321 | 17.22° C | 31% | 1016.3 hPa | 0 mm | - | 262 W/m² | - |
| 1778094018 | 17.78° C | 29% | 1016.4 hPa | 0 mm | - | 942 W/m² | - |
| 1778093715 | 17.22° C | 31% | 1016.3 hPa | 0 mm | - | 225 W/m² | - |
| 1778093412 | 17.78° C | 31% | 1016.4 hPa | 0 mm | - | 229 W/m² | - |
| 1778093110 | 16.67° C | 32% | 1016.3 hPa | 0 mm | - | 628 W/m² | - |
| 1778092807 | 17.78° C | 30% | 1016.6 hPa | 0 mm | - | 260 W/m² | - |
| 1778092502 | 17.78° C | 31% | 1016.4 hPa | 0 mm | - | 871 W/m² | - |
| 1778092199 | 17.22° C | 31% | 1016.7 hPa | 0 mm | - | 894 W/m² | - |
| 1778091897 | 17.22° C | 32% | 1016.7 hPa | 0 mm | - | 261 W/m² | - |
| 1778091593 | 17.78° C | 32% | 1017 hPa | 0 mm | - | 242 W/m² | - |
| 1778091291 | 17.78° C | 34% | 1016.9 hPa | 0 mm | - | 843 W/m² | - |
| 1778090988 | 17.22° C | 32% | 1017.2 hPa | 0 mm | - | 815 W/m² | - |
| 1778090684 | 17.22° C | 33% | 1016.9 hPa | 0 mm | - | 175 W/m² | - |
| 1778090381 | 16.11° C | 34% | 1017.2 hPa | 0 mm | - | 856 W/m² | - |
| 1778090078 | 16.67° C | 34% | 1017.4 hPa | 0 mm | - | 427 W/m² | - |
| 1778089774 | 16.11° C | 34% | 1017.3 hPa | 0 mm | - | 888 W/m² | - |
| 1778089472 | 16.11° C | 34% | 1017.3 hPa | 0 mm | - | 860 W/m² | - |
| 1778089169 | 15.56° C | 35% | 1017.2 hPa | 0 mm | - | 269 W/m² | - |
| 1778088866 | 16.11° C | 34% | 1017.3 hPa | 0 mm | - | 871 W/m² | - |
| 1778088557 | 15.56° C | 35% | 1017.4 hPa | 0 mm | - | 209 W/m² | - |
| 1778088254 | 15.56° C | 37% | 1017.5 hPa | 0 mm | - | 779 W/m² | - |
| 1778087946 | 15° C | 37% | 1017.7 hPa | 0 mm | - | 831 W/m² | - |
| 1778087643 | 16.11° C | 35% | 1017.5 hPa | 0 mm | - | 248 W/m² | - |
* Rain latest hour (hover to see other rain measurements)
** Current wind speed in m/s (hover to see current wind gust speed)